Weather History for Orlando International, FL

Change the Weather History Date:

Wednesday, February 15, 2012

  Actual Average Record
Temperature  
Mean Temperature 68 °F 63 °F  
Max Temperature 82 °F 74 °F 90 °F (1935)
Min Temperature 53 °F 52 °F 28 °F (1943)
Degree Days  
Heating Degree Days 0 4  
Month to date heating degree days 46 71  
Since 1 July heating degree days 291 455  
Cooling Degree Days 3 2  
Month to date cooling degree days 41 30  
Year to date cooling degree days 60 75  
Growing Degree Days 17 (Base 50)    
Moisture  
Dew Point 56 °F    
Average Humidity 71    
Maximum Humidity 100    
Minimum Humidity 42    
Precipitation  
Precipitation 0.00 in 0.08 in 1.15 in (1981)
Month to date precipitation 0.98 1.25  
Year to date precipitation 1.11 3.60  
Sea Level Pressure  
Sea Level Pressure 30.17 in    
Wind  
Wind Speed 6 mph (SSE)    
Max Wind Speed 14 mph    
Max Gust Speed 17 mph    
Visibility 10 miles    
Events Fog    
T = Trace of Precipitation, MM = Missing Value Source: NWS Daily Summary

Daily Weather History Graph

Daily Weather History Graph

Search for Another Location

Airport:

Trip Planner

Search our weather history database for the weather conditions in past years. The results will help you decide how hot, cold, wet, or windy it might be!

Date:

Astronomy

Feb. 15, 2012 Rise Set
Actual Time 7:03 AM EST 6:15 PM EST
Civil Twilight 6:39 AM EST 6:39 PM EST
Nautical Twilight 6:11 AM EST 7:07 PM EST
Astronomical Twilight 5:44 AM EST 7:34 PM EST
Moon 1:40 AM EST (2/15) 12:24 PM EST (2/15)
Length of Visible Light 11h 59m
Length of Day
11h 11m
Last Quarter, 39% of the Moon is Illuminated
Feb 15
Last Quarter
Feb 21
New
Feb 29
First Quarter
Mar 8
Full
Mar 14
Last Quarter

Hourly Weather History & Observations

Time (EST) Temp. Heat Index Dew Point Humidity Pressure Visibility Wind Dir Wind Speed Gust Speed Precip Events Conditions
12:53 AM 57.9 °F - 54.0 °F 87% 30.14 in 10.0 mi South 5.8 mph - N/A   Partly Cloudy
1:53 AM 59.0 °F - 54.0 °F 83% 30.14 in 10.0 mi SSE 4.6 mph - N/A   Partly Cloudy
2:53 AM 57.0 °F - 54.0 °F 89% 30.13 in 10.0 mi South 6.9 mph - N/A   Partly Cloudy
3:53 AM 57.0 °F - 54.0 °F 89% 30.13 in 10.0 mi Calm Calm - N/A   Clear
4:53 AM 57.0 °F - 55.0 °F 93% 30.15 in 10.0 mi Calm Calm - N/A   Partly Cloudy
5:43 AM 53.6 °F - 51.8 °F 94% 30.16 in 7.0 mi SSE 5.8 mph - N/A Fog Patches of Fog
5:53 AM 55.9 °F - 54.0 °F 93% 30.16 in 10.0 mi Calm Calm - N/A Fog Shallow Fog
6:53 AM 57.0 °F - 55.0 °F 93% 30.18 in 10.0 mi Calm Calm - N/A Fog Patches of Fog
7:53 AM 57.9 °F - 57.0 °F 97% 30.20 in 10.0 mi SSW 3.5 mph - N/A   Mostly Cloudy
8:53 AM 68.0 °F - 57.9 °F 70% 30.21 in 10.0 mi South 8.1 mph - N/A   Scattered Clouds
9:53 AM 73.0 °F - 57.9 °F 59% 30.22 in 10.0 mi SSW 11.5 mph - N/A   Scattered Clouds
10:53 AM 75.9 °F - 57.0 °F 52% 30.22 in 10.0 mi SSW 12.7 mph - N/A   Scattered Clouds
11:53 AM 78.1 °F - 55.9 °F 46% 30.20 in 10.0 mi SSW 8.1 mph - N/A   Scattered Clouds
12:53 PM 78.1 °F - 55.9 °F 46% 30.18 in 10.0 mi Variable 3.5 mph - N/A   Mostly Cloudy
1:53 PM 80.1 °F 80.2 °F 55.9 °F 43% 30.14 in 10.0 mi West 4.6 mph - N/A   Mostly Cloudy
2:53 PM 81.0 °F 80.8 °F 55.9 °F 42% 30.13 in 10.0 mi SE 6.9 mph - N/A   Mostly Cloudy
3:53 PM 81.0 °F 80.8 °F 55.9 °F 42% 30.13 in 10.0 mi South 8.1 mph - N/A   Scattered Clouds
4:53 PM 81.0 °F 80.7 °F 55.0 °F 41% 30.13 in 10.0 mi SE 4.6 mph - N/A   Scattered Clouds
5:53 PM 78.1 °F - 55.9 °F 46% 30.13 in 10.0 mi South 3.5 mph - N/A   Scattered Clouds
6:53 PM 73.9 °F - 59.0 °F 59% 30.16 in 10.0 mi ESE 10.4 mph - N/A   Mostly Cloudy
7:53 PM 72.0 °F - 57.9 °F 61% 30.18 in 10.0 mi ESE 6.9 mph - N/A   Overcast
8:53 PM 69.1 °F - 57.9 °F 68% 30.18 in 10.0 mi ESE 6.9 mph - N/A   Scattered Clouds
9:53 PM 69.1 °F - 60.1 °F 73% 30.19 in 10.0 mi ESE 8.1 mph - N/A   Mostly Cloudy
10:53 PM 70.0 °F - 61.0 °F 73% 30.19 in 10.0 mi SE 10.4 mph - N/A   Mostly Cloudy
11:53 PM 68.0 °F - 61.0 °F 78% 30.19 in 10.0 mi South 6.9 mph - N/A   Scattered Clouds